| time (UTC) | temp C | wind direction | speed KPH | gust KPH | rain 1hr cm | rain 24hr cm | rain mn cm | humidity % | barometer mb |
| 20260505153131 | 11 | 293 | 4.8 | 14.5 | 0.03 | 0.79 | 0.79 | 95 | 1014.0 |
| 20260505150110 | 11 | 270 | 14.5 | 30.6 | 0.13 | 0.79 | 0.79 | 95 | 1013.9 |
| 20260505140111 | 11 | 270 | 4.8 | 11.3 | 0.00 | 0.66 | 0.66 | 95 | 1013.2 |
| 20260505130110 | 11 | 248 | 6.4 | 12.9 | 0.28 | 0.66 | 0.66 | 95 | 1012.7 |
| 20260505123110 | 11 | 270 | 4.8 | 12.9 | 0.20 | 0.58 | 0.58 | 95 | 1012.5 |
| 20260505120110 | 12 | 248 | 4.8 | 9.7 | 0.00 | 0.38 | 0.38 | 94 | 1012.6 |
| 20260505113130 | 12 | 248 | 6.4 | 17.7 | 0.03 | 0.38 | 0.38 | 94 | 1012.5 |
| 20260505110110 | 12 | 248 | 6.4 | 17.7 | 0.08 | 0.38 | 0.38 | 94 | 1012.6 |
| 20260505100109 | 11 | 90 | 3.2 | 11.3 | 0.05 | 0.28 | 0.28 | 93 | 1012.7 |
| 20260505093111 | 11 | 90 | 4.8 | 8.0 | 0.05 | 0.23 | 0.23 | 92 | 1012.8 |
| 20260505090109 | 11 | 90 | 4.8 | 11.3 | 0.23 | 0.23 | 0.23 | 90 | 1013.0 |
| 20260505083109 | 12 | 203 | 1.6 | 8.0 | 0.18 | 0.18 | 0.18 | 87 | 1013.4 |
| 20260505080111 | 12 | 0.0 | 4.8 | 0.00 | 0.00 | 0.00 | 85 | 1013.6 | |
| 20260505073109 | 12 | 90 | 3.2 | 6.4 | 0.00 | 0.00 | 0.00 | 84 | 1013.6 |
| 20260505070109 | 12 | 90 | 4.8 | 9.7 | 0.00 | 0.00 | 0.00 | 84 | 1013.7 |
| 20260505063110 | 12 | 113 | 3.2 | 6.4 | 0.00 | 0.00 | 0.00 | 84 | 1013.9 |
| 20260505060109 | 13 | 0.0 | 4.8 | 0.00 | 0.00 | 0.00 | 83 | 1014.2 | |
| 20260505053109 | 13 | 0.0 | 4.8 | 0.00 | 0.00 | 0.00 | 83 | 1014.5 | |
| 20260505050130 | 13 | 248 | 3.2 | 8.0 | 0.00 | 0.00 | 0.00 | 83 | 1014.7 |
| 20260505040130 | 13 | 225 | 6.4 | 12.9 | 0.00 | 0.00 | 0.00 | 83 | 1014.6 |
| 20260505033109 | 13 | 225 | 6.4 | 16.1 | 0.00 | 0.00 | 0.00 | 81 | 1014.3 |
| 20260505030109 | 13 | 248 | 11.3 | 17.7 | 0.00 | 0.00 | 0.00 | 79 | 1014.0 |
| 20260505023130 | 14 | 248 | 12.9 | 20.9 | 0.00 | 0.00 | 0.00 | 76 | 1013.9 |
| 20260505020109 | 15 | 248 | 14.5 | 24.1 | 0.00 | 0.00 | 0.00 | 73 | 1013.9 |
| 20260505013108 | 16 | 270 | 16.1 | 25.7 | 0.00 | 0.00 | 0.00 | 70 | 1014.0 |
| 20260505010110 | 17 | 270 | 17.7 | 32.2 | 0.00 | 0.00 | 0.00 | 67 | 1014.1 |
| 20260505003108 | 17 | 270 | 17.7 | 30.6 | 0.00 | 0.00 | 0.00 | 66 | 1014.1 |
| 20260505000128 | 16 | 248 | 17.7 | 30.6 | 0.00 | 0.00 | 0.00 | 68 | 1014.1 |
| 20260504233108 | 17 | 270 | 19.3 | 32.2 | 0.00 | 0.00 | 0.00 | 67 | 1014.1 |
| 20260504230108 | 17 | 248 | 19.3 | 32.2 | 0.00 | 0.00 | 0.00 | 65 | 1014.3 |
| 20260504223108 | 17 | 248 | 20.9 | 35.4 | 0.00 | 0.00 | 0.00 | 63 | 1014.2 |
| 20260504220108 | 17 | 248 | 22.5 | 40.2 | 0.00 | 0.00 | 0.00 | 63 | 1014.5 |
| 20260504213108 | 17 | 248 | 22.5 | 37.0 | 0.00 | 0.00 | 0.00 | 65 | 1014.8 |
| 20260504210108 | 17 | 248 | 19.3 | 33.8 | 0.00 | 0.00 | 0.00 | 64 | 1014.8 |
| 20260504203108 | 17 | 248 | 17.7 | 35.4 | 0.00 | 0.00 | 0.00 | 65 | 1014.8 |
| 20260504200108 | 17 | 270 | 16.1 | 32.2 | 0.00 | 0.00 | 0.00 | 65 | 1015.1 |
| 20260504193128 | 16 | 248 | 17.7 | 29.0 | 0.00 | 0.00 | 0.00 | 65 | 1015.2 |
| 20260504190108 | 16 | 248 | 16.1 | 25.7 | 0.00 | 0.00 | 0.00 | 68 | 1015.2 |
| 20260504183107 | 16 | 248 | 12.9 | 27.4 | 0.00 | 0.00 | 0.00 | 69 | 1015.5 |
| 20260504180108 | 16 | 248 | 9.7 | 22.5 | 0.00 | 0.00 | 0.00 | 70 | 1015.4 |
| 20260504173107 | 15 | 248 | 9.7 | 22.5 | 0.00 | 0.00 | 0.00 | 74 | 1015.2 |
| 20260504170108 | 15 | 248 | 8.0 | 19.3 | 0.00 | 0.00 | 0.00 | 75 | 1015.1 |
| 20260504160107 | 14 | 248 | 6.4 | 17.7 | 0.00 | 0.00 | 0.00 | 76 | 1015.1 |